EET,Max TemperatureF,Mean TemperatureF,Min TemperatureF,Max Dew PointF,MeanDew PointF,Min DewpointF,Max Humidity, Mean Humidity, Min Humidity, Max Sea Level PressureIn, Mean Sea Level PressureIn, Min Sea Level PressureIn, Max VisibilityMiles, Mean VisibilityMiles, Min VisibilityMiles, Max Wind SpeedMPH, Mean Wind SpeedMPH, Max Gust SpeedMPH,PrecipitationIn, CloudCover, Events, WindDirDegrees
2012-12-1,87,76,64,66,58,52,83,57,20,30.06,30.01,29.95,6,5,2,6,3,,0.00,,,9
2012-12-2,86,72,57,59,53,43,72,51,26,30.06,30.00,29.95,6,6,6,5,1,,0.00,,,354
2012-12-3,85,70,55,54,47,41,59,43,20,30.04,29.96,29.89,6,5,4,4,0,,0.00,,,151
2012-12-4,84,70,55,57,47,39,67,43,19,29.94,29.88,29.83,6,5,3,7,2,,0.00,,,269
2012-12-5,78,68,57,55,51,46,72,54,37,29.98,29.92,29.86,6,6,4,5,2,,0.00,,,294
2012-12-6,75,64,54,57,54,50,82,65,43,30.06,30.00,29.95,6,6,6,5,1,,0.00,,,65
2012-12-7,84,69,54,59,52,45,77,57,35,30.02,29.97,29.92,6,6,6,5,1,,0.00,,,121
2012-12-8,79,66,54,55,51,48,77,57,34,30.06,30.00,29.94,6,6,5,5,1,,0.00,,,206
2012-12-9,78,64,51,57,49,41,72,55,34,30.04,29.97,29.91,6,5,1,5,0,,0.00,,,250
2012-12-10,77,64,52,52,46,41,72,51,22,30.04,29.97,29.92,6,6,4,10,1,,0.00,,,308
2012-12-11,74,62,50,45,42,41,67,52,25,30.15,30.08,29.98,6,5,4,7,2,,0.00,,,309
2012-12-12,72,58,43,46,41,36,71,55,29,30.12,30.06,30.01,6,6,6,8,1,,0.00,,,159
2012-12-13,71,60,48,45,43,41,76,53,23,30.12,30.07,30.04,6,6,6,9,3,,0.00,,,315
2012-12-14,74,60,46,50,45,39,76,56,33,30.16,30.09,30.04,6,6,5,4,1,,0.00,,,248
2012-12-15,73,60,47,52,47,39,77,61,30,30.12,30.05,29.98,6,5,5,8,2,,0.00,,,295
2012-12-16,71,60,48,50,47,43,82,62,34,30.12,30.07,30.04,6,6,6,5,2,,0.00,,,238
2012-12-17,72,59,46,47,42,38,76,57,31,30.12,30.06,30.01,6,6,6,4,1,,0.00,,,153
2012-12-18,73,59,45,54,47,39,87,62,34,30.09,30.04,30.01,6,6,6,5,2,,0.00,,,190
2012-12-19,75,60,45,48,43,37,81,54,27,30.10,30.03,29.98,6,6,6,5,1,,0.00,,,175
2012-12-20,73,60,46,49,41,36,63,51,31,30.04,29.99,29.95,6,6,6,12,3,,0.00,,,222
2012-12-21,70,58,47,45,41,36,67,54,28,30.07,30.03,29.98,6,6,6,12,3,,0.00,,,268
2012-12-22,69,56,44,45,41,36,76,55,33,30.12,30.07,30.01,6,6,6,5,1,,0.00,,,141
2012-12-23,72,57,42,45,40,36,81,55,28,30.10,30.04,29.98,6,6,6,4,1,,0.00,,,76
2012-12-24,70,56,42,48,42,32,67,54,33,30.06,30.02,29.98,6,6,6,10,4,,0.00,,,246
2012-12-25,69,60,52,52,50,48,88,66,44,30.18,30.11,30.06,6,6,6,8,4,,0.00,3,,270
2012-12-26,74,60,46,54,48,43,87,64,40,30.24,30.17,30.12,6,6,6,4,2,,0.00,,,44
2012-12-27,75,60,45,55,47,41,82,61,38,30.19,30.12,30.04,6,6,6,5,1,,0.00,,,27
2012-12-28,76,60,43,54,45,37,87,58,37,30.11,30.04,29.98,6,5,4,2,1,,0.00,,,177
2012-12-29,74,62,49,52,48,43,82,64,32,30.04,30.00,29.95,6,5,4,7,1,,0.00,,,230
2012-12-30,73,60,48,52,48,45,82,66,35,30.10,30.05,30.01,6,6,6,4,2,,0.00,,,209
2012-12-31,73,58,44,50,45,41,87,61,31,30.09,30.05,30.01,6,6,6,4,1,,0.00,,,167